[[{"header":{"parameterUnit":"m.s-1","parameterCategory":1,"la1":30.2991,"la2":30.254,"lo1":-89.0895,"lo2":-89.0444,"dy":0.0017,"dx":0.0017,"nx":28,"ny":28,"refTime":"2025-08-07T09:00:00:Z","depth":0,"parameterNumber":2,"parameterNumberName":"U-component_of_WINDS"},"data":[0,0,0,0,0,0,0,0,0,0,0,0,0,0,0,0,0,0,0,0,0,0,0,0,0,0,0,0,0,0,0,0,0,0,0,0,0,0,0,0,0,0,0,0,0,0,0,0,0,0,0,0,0,0,0,0,0,0,-2.294,-2.2939,0,-2.2852,-2.2851,-2.285,-2.2751,-2.275,-2.2749,-2.2747,-2.2658,-2.2657,-2.2656,0,0,0,0,0,0,0,0,0,0,0,0,0,-2.3029,-2.3028,-2.294,-2.2939,-2.2938,-2.2852,-2.2851,-2.2849,-2.2752,-2.275,-2.2748,-2.2747,-2.2658,-2.2657,-2.2656,0,0,0,0,0,0,0,0,0,0,0,0,0,-2.2971,-2.3027,-2.2941,-2.2879,-2.2873,-2.2852,-2.285,-2.2849,-2.2752,-2.275,-2.2748,-2.2746,-2.2659,-2.2657,-2.2656,-2.2689,0,0,-2.2651,-2.265,0,0,0,0,0,0,0,0,-2.2974,-2.2967,-2.2889,-2.2883,-2.2876,-2.281,-2.2849,-2.2795,-2.2753,-2.2798,-2.2747,-2.2745,-2.2711,-2.2705,-2.2693,-2.2685,-2.2681,-2.2651,-2.265,-2.2649,-2.2649,0,0,0,0,0,0,0,-2.2978,-2.2971,-2.2905,-2.2888,-2.288,-2.2857,-2.2846,-2.2838,-2.2767,-2.2794,-2.2786,-2.2777,-2.2706,-2.2694,-2.269,-2.268,-2.2651,-2.2649,-2.2648,-2.2648,-2.2697,-2.2699,0,0,0,0,0,0,-2.2991,-2.2975,-2.2908,-2.2903,-2.2921,-2.2857,-2.2845,-2.2834,-2.2767,-2.2755,-2.2779,-2.2773,-2.2698,-2.2692,-2.2686,-2.2721,-2.2649,-2.2648,-2.2647,-2.2695,-2.2698,-2.27,0,0,0,0,0,0,-2.2993,-2.2986,-2.2912,-2.2937,-2.2925,-2.2858,-2.2846,-2.2833,-2.2821,-2.2756,-2.2743,-2.2779,-2.2696,-2.2689,-2.2689,-2.2717,-2.2647,-2.2646,-2.2692,-2.2696,-2.2699,-2.2792,0,0,0,0,0,0,-2.2996,-2.2987,-2.2998,-2.2938,-2.2924,-2.2915,-2.2847,-2.2833,-2.2818,-2.2809,-2.2753,-2.2742,-2.2694,-2.2692,-2.2688,-2.2714,-2.2644,-2.2689,-2.2694,-2.2698,-2.2786,-2.2798,-2.2809,0,0,0,0,0,-2.3,-2.3028,-2.2999,-2.2992,-2.2936,-2.2917,-2.2909,-2.2853,-2.2821,-2.2832,-2.2791,-2.2743,-2.2716,-2.2693,-2.2687,-2.2713,-2.2687,-2.2692,-2.2697,-2.2781,-2.2796,-2.2808,0,0,0,0,0,0,-2.3093,-2.3019,-2.2986,-2.2995,-2.2963,-2.29,-2.2912,-2.2871,-2.2847,-2.284,-2.2772,-2.2761,-2.277,-2.2742,-2.2718,-2.2743,-2.2695,-2.2699,-2.2761,-2.2774,-2.2785,-2.2791,-2.2643,0,0,0,0,0,-2.3115,-2.3105,-2.3041,-2.3055,-2.3041,-2.298,-2.2969,-2.2929,-2.2893,-2.2879,-2.2838,-2.2806,-2.279,-2.2781,-2.2762,-2.2783,-2.277,-2.2798,-2.2809,-2.2819,-2.2823,-2.2833,-2.2845,-2.2717,-2.2717,-2.2716,0,0,-2.316,-2.3118,-2.3115,-2.3073,-2.3043,-2.3035,-2.2969,-2.2962,-2.2956,-2.2878,-2.2876,-2.2846,-2.2806,-2.2817,-2.282,-2.2794,-2.2856,-2.2825,-2.2833,-2.2832,-2.284,-2.2852,-2.2863,-2.272,-2.2719,-2.2719,0,0,-2.3236,-2.3204,-2.3212,-2.3185,-2.3141,-2.3101,-2.3104,-2.3048,-2.3025,-2.3022,-2.2964,-2.2957,-2.293,-2.2904,-2.2888,-2.2959,-2.2915,-2.2956,-2.3013,-2.3024,-2.3034,-2.3043,-2.3069,-2.3079,-2.296,-2.296,-2.296,0,-2.3297,-2.3281,-2.3222,-2.322,-2.3204,-2.3135,-2.3144,-2.312,-2.3073,-2.3064,-2.3036,-2.3003,-2.2971,-2.2976,-2.2994,-2.2983,-2.2985,-2.296,-2.3038,-2.3046,-2.3053,-2.3077,-2.3087,-2.2965,-2.2965,-2.2964,-2.2964,0,-2.3359,-2.335,-2.3362,-2.3319,-2.3304,-2.3308,-2.3251,-2.3244,-2.3207,-2.317,-2.317,-2.313,-2.3103,-2.3102,-2.3065,-2.3102,-2.3088,-2.305,-2.2999,-2.3071,-2.3093,-2.3101,-2.2973,-2.2971,-2.2969,-2.2968,0,0,-2.3488,-2.3415,-2.342,-2.3401,-2.3349,-2.3341,-2.3344,-2.3317,-2.3313,-2.3285,-2.3285,-2.3266,-2.3231,-2.3213,-2.3173,-2.3183,-2.3244,-2.3144,-2.3142,-2.3164,-2.3284,-2.3312,-2.3323,-2.3215,-2.3217,-2.3218,-2.3287,0,-2.3556,-2.3553,-2.3502,-2.3515,-2.3506,-2.3442,-2.3444,-2.3414,-2.3381,-2.337,-2.3334,-2.3322,-2.3277,-2.3266,-2.3273,-2.3235,-2.3267,-2.3229,-2.3216,-2.3216,-2.3226,-2.3334,-2.3363,-2.343,-2.3295,-2.3296,-2.3297,0,-2.3632,-2.3609,-2.3621,-2.3571,-2.3566,-2.3568,-2.3541,-2.3532,-2.3497,-2.3473,-2.3454,-2.341,-2.341,-2.3365,-2.3365,-2.3341,-2.3333,-2.3314,-2.3315,-2.331,-2.326,-2.3332,-2.345,-2.346,-2.331,-2.3309,-2.3308,0,-2.3725,-2.3697,-2.3701,-2.3686,-2.3628,-2.3632,-2.3608,-2.3572,-2.356,-2.3538,-2.353,-2.3508,-2.3496,-2.3481,-2.3433,-2.3404,-2.3439,-2.3389,-2.3419,-2.3421,-2.3428,-2.3428,-2.3545,-2.3425,-2.3425,-2.3425,-2.3425,0,-2.3805,-2.3814,-2.3742,-2.3744,-2.3754,-2.3697,-2.3709,-2.3679,-2.3648,-2.3645,-2.3589,-2.3587,-2.3524,-2.3516,-2.3479,-2.3485,-2.348,-2.3461,-2.3451,-2.3465,-2.3468,-2.3458,-2.3452,-2.3427,-2.3427,-2.3426,-2.3426,0,-2.3909,-2.3861,-2.3861,-2.3807,-2.3794,-2.3804,-2.3759,-2.376,-2.3725,-2.3722,-2.3718,-2.3663,-2.3651,-2.3602,-2.3578,-2.3553,-2.3572,-2.3553,-2.3583,-2.3576,-2.3609,-2.3607,-2.3724,-2.3736,-2.361,-2.3611,-2.3612,0,-2.3962,-2.3968,-2.3916,-2.3909,-2.3888,-2.3879,-2.3867,-2.3812,-2.3803,-2.3766,-2.3772,-2.3756,-2.3739,-2.3723,-2.3682,-2.3664,-2.3643,-2.3686,-2.364,-2.3655,-2.3644,-2.3643,-2.3644,-2.3695,-2.3697,-2.3698,-2.3699,0,-2.4061,-2.4037,-2.4022,-2.4,-2.3988,-2.3967,-2.3944,-2.3942,-2.3882,-2.3874,-2.3861,-2.3849,-2.3825,-2.381,-2.3786,-2.3763,-2.3722,-2.3715,-2.372,-2.3734,-2.3752,-2.3743,-2.3609,-2.3711,-2.371,-2.3709,-2.3708,-2.3708,-2.414,-2.4143,-2.4108,-2.4093,-2.4071,-2.4051,-2.4049,-2.4016,-2.4003,-2.3979,-2.3949,-2.394,-2.3909,-2.3872,-2.3853,-2.3847,-2.3823,-2.3832,-2.3834,-2.3837,-2.3844,-2.3755,-2.3842,-2.3842,-2.3842,-2.3841,-2.3841,0,-2.4235,-2.421,-2.4198,-2.4168,-2.4157,-2.412,-2.4093,-2.4087,-2.408,-2.4054,-2.404,-2.4027,-2.4013,-2.3972,-2.3954,-2.3957,-2.3938,-2.3954,-2.3953,-2.3949,-2.3866,-2.3862,-2.397,-2.397,-2.397,-2.397,-2.397,-2.397,-2.4284,-2.4288,-2.4261,-2.4254,-2.4229,-2.4219,-2.4208,-2.419,-2.4169,-2.4156,-2.4144,-2.4118,-2.4087,-2.4067,-2.4054,-2.4042,-2.4038,-2.4061,-2.4044,-2.3967,-2.3954,-2.3942,-2.3938,-2.4061,-2.4061,-2.4126,-2.4127,-2.4127]},{"header":{"parameterUnit":"m.s-1","parameterCategory":1,"la1":30.2991,"la2":30.254,"lo1":-89.0895,"lo2":-89.0444,"dy":0.0017,"dx":0.0017,"nx":28,"ny":28,"refTime":"2025-08-07T09:00:00:Z","depth":0,"parameterNumber":3,"parameterNumberName":"V-component_of_WINDS"},"data":[0,0,0,0,0,0,0,0,0,0,0,0,0,0,0,0,0,0,0,0,0,0,0,0,0,0,0,0,0,0,0,0,0,0,0,0,0,0,0,0,0,0,0,0,0,0,0,0,0,0,0,0,0,0,0,0,0,0,2.5859,2.5859,0,2.5909,2.5909,2.591,2.6002,2.6004,2.6006,2.6007,2.6052,2.6052,2.6052,0,0,0,0,0,0,0,0,0,0,0,0,0,2.5839,2.5838,2.5859,2.5859,2.586,2.5909,2.5909,2.591,2.6002,2.6004,2.6006,2.6008,2.6053,2.6052,2.6051,0,0,0,0,0,0,0,0,0,0,0,0,0,2.5863,2.5838,2.5859,2.5912,2.5917,2.5908,2.5909,2.591,2.6001,2.6004,2.6007,2.6009,2.6053,2.6052,2.6051,2.5993,0,0,2.6049,2.6049,0,0,0,0,0,0,0,0,2.5862,2.5864,2.5903,2.5908,2.5914,2.5952,2.5919,2.5938,2.6001,2.5969,2.6008,2.6011,2.6016,2.6019,2.6022,2.5995,2.5997,2.6049,2.6049,2.6048,2.6048,0,0,0,0,0,0,0,2.586,2.5862,2.5878,2.5904,2.591,2.5932,2.5938,2.5923,2.5977,2.5972,2.5979,2.5984,2.602,2.6023,2.6024,2.5998,2.6049,2.6049,2.6048,2.6048,2.5925,2.5922,0,0,0,0,0,0,2.5851,2.586,2.5877,2.588,2.5894,2.593,2.5937,2.5937,2.5977,2.5986,2.5982,2.5988,2.6023,2.6025,2.6026,2.5959,2.6048,2.6048,2.6047,2.5928,2.5924,2.5921,0,0,0,0,0,0,2.5851,2.5852,2.5875,2.5872,2.5877,2.5928,2.5926,2.5937,2.594,2.5985,2.5994,2.5975,2.6025,2.6027,2.6001,2.5962,2.6047,2.6047,2.5931,2.5927,2.5923,2.5826,0,0,0,0,0,0,2.585,2.5851,2.583,2.5871,2.5876,2.585,2.5924,2.5936,2.5939,2.5948,2.5981,2.5989,2.6027,2.6001,2.6,2.5963,2.6046,2.5935,2.5929,2.5924,2.5833,2.5819,2.5807,0,0,0,0,0,2.5849,2.58,2.5829,2.583,2.5852,2.5847,2.585,2.5897,2.5935,2.5914,2.5943,2.5988,2.5967,2.5998,2.5997,2.5959,2.5937,2.5931,2.5925,2.5838,2.5822,2.5807,0,0,0,0,0,0,2.575,2.5806,2.5839,2.5802,2.5819,2.5863,2.5837,2.5878,2.5883,2.5891,2.5948,2.5954,2.592,2.5938,2.5971,2.5905,2.5959,2.5953,2.5894,2.5878,2.5866,2.5861,2.6046,0,0,0,0,0,2.5725,2.5718,2.5767,2.5729,2.5737,2.5786,2.5785,2.5821,2.584,2.5847,2.5875,2.5891,2.5888,2.5885,2.5885,2.5837,2.5845,2.581,2.5798,2.5787,2.5779,2.5754,2.5739,2.59,2.5901,2.5901,0,0,2.5671,2.5701,2.5692,2.571,2.5728,2.5719,2.5791,2.5778,2.5771,2.5845,2.5822,2.5843,2.5864,2.5827,2.5812,2.584,2.5737,2.5779,2.577,2.5768,2.5746,2.5731,2.5717,2.5896,2.5897,2.5898,0,0,2.5567,2.559,2.5561,2.5579,2.5606,2.5639,2.5632,2.567,2.5687,2.5666,2.5722,2.5714,2.5708,2.5721,2.5727,2.5631,2.5671,2.563,2.5561,2.5536,2.5523,2.5512,2.5476,2.5463,2.5623,2.5622,2.5622,0,2.5496,2.5486,2.5541,2.5525,2.553,2.56,2.5571,2.5584,2.5609,2.561,2.5643,2.5638,2.5657,2.5624,2.5601,2.5604,2.5596,2.5624,2.5521,2.5511,2.5501,2.5467,2.5454,2.5617,2.5618,2.5618,2.5619,0,2.5396,2.5388,2.5362,2.5386,2.5389,2.5366,2.5416,2.5413,2.5448,2.5478,2.5455,2.5481,2.5488,2.5483,2.5517,2.5454,2.5471,2.5512,2.5567,2.5479,2.5448,2.5436,2.5609,2.5611,2.5613,2.5614,0,0,2.5228,2.5286,2.5275,2.5287,2.5324,2.5318,2.5298,2.5307,2.5302,2.5317,2.53,2.5296,2.5334,2.5341,2.5377,2.5355,2.5276,2.5399,2.54,2.5373,2.5206,2.5173,2.5158,2.5304,2.5302,2.53,2.5204,0,2.5131,2.5102,2.5152,2.511,2.5102,2.517,2.5153,2.5172,2.52,2.5196,2.5226,2.5221,2.5273,2.5278,2.526,2.5289,2.5242,2.5297,2.5287,2.5286,2.5276,2.5142,2.5107,2.5014,2.5192,2.519,2.5189,0,2.5012,2.5024,2.4982,2.5022,2.5021,2.5004,2.5017,2.5014,2.5037,2.5058,2.5067,2.5111,2.5093,2.5149,2.5124,2.516,2.5159,2.5173,2.5171,2.5169,2.523,2.5134,2.4986,2.4971,2.5171,2.5172,2.5174,0,2.4892,2.4897,2.4873,2.4882,2.4928,2.4915,2.4933,2.496,2.4962,2.4972,2.4974,2.4982,2.4985,2.4989,2.5033,2.5071,2.5002,2.5062,2.5017,2.5016,2.4997,2.4997,2.4844,2.5001,2.5001,2.5001,2.5002,0,2.4776,2.4747,2.482,2.4804,2.4774,2.4832,2.4799,2.4824,2.4848,2.4837,2.4897,2.4885,2.4946,2.494,2.4975,2.4948,2.4949,2.4964,2.4973,2.4958,2.4955,2.4955,2.4962,2.4998,2.4998,2.4999,2.5,0,2.4634,2.4682,2.466,2.4707,2.4718,2.4693,2.4732,2.4719,2.4752,2.4738,2.4738,2.4788,2.4785,2.4831,2.4836,2.4859,2.4816,2.4837,2.4808,2.4813,2.4765,2.4768,2.4605,2.4586,2.4756,2.4755,2.4753,0,2.4556,2.4535,2.4581,2.4579,2.4595,2.4592,2.4595,2.4652,2.4653,2.4679,2.4662,2.4665,2.467,2.4661,2.4697,2.4701,2.4722,2.4665,2.4722,2.4707,2.4718,2.4718,2.4715,2.4651,2.4649,2.4647,2.4646,0,2.441,2.4436,2.444,2.4452,2.4455,2.4466,2.4482,2.4477,2.4539,2.4536,2.4535,2.4539,2.4546,2.4547,2.4559,2.4576,2.4619,2.4628,2.4617,2.4599,2.4582,2.4589,2.4772,2.463,2.4632,2.4633,2.4634,2.4634,2.4297,2.4282,2.4312,2.4314,2.4332,2.4346,2.4336,2.4369,2.4369,2.4381,2.4414,2.4407,2.4432,2.4452,2.4466,2.446,2.4488,2.4472,2.4468,2.4463,2.4453,2.4586,2.4462,2.4463,2.4463,2.4464,2.4464,0,2.4152,2.4176,2.4178,2.4199,2.42,2.4246,2.4266,2.4263,2.4257,2.4277,2.4281,2.428,2.4282,2.4319,2.4324,2.4312,2.4333,2.4312,2.4311,2.4314,2.4429,2.4436,2.4295,2.4295,2.4295,2.4295,2.4295,2.4295,2.4078,2.4055,2.4084,2.407,2.4094,2.4089,2.4096,2.4108,2.4125,2.4121,2.4124,2.4149,2.4176,2.4184,2.4187,2.4198,2.4196,2.4168,2.4185,2.429,2.4306,2.4322,2.4329,2.4168,2.4167,2.4071,2.407,2.4069]}]]